Airfield :
LOGIN :

Register | Disclaimer

   EN    FR    IT 

 










Legend :    VFR   Marginal VFR   IFR   Intensive IFR   Very Intensive IFR
Visi :
Ceiling :
>= 8 km
>= 3000ft
5 to 8 km
1000 to 3000 ft
1500m to 5 km
500 to 1000 ft
800 to 1500m
200 to 500 ft
< 800m
< 200 ft
Symbols :   Thunderstorms  Fog  Heavy snow  Heavy precipitations  Wind > 20 kt
SIGMETs :     Misc.  Thunderstorms  Icing  Turbulence  Mountain Waves  Volcanic Ashes







- Airport Elevation : 45 ft
- IATA code : CEG
- Download approach charts


EGNR - Hawarden Chester

CURRENT METAR :
  • 140950Z 30004KT 230V360 9999 BKN023 BKN036 20/14 Q1015

EXPIRED METARs :
  • 140920Z VRB02KT 9999 SCT018 BKN025 19/14 Q1015
  • 140850Z VRB03KT 9999 SCT018 BKN035 19/14 Q1015
  • 140820Z VRB02KT 9999 FEW018 BKN040 18/14 Q1015
  • 140750Z VRB03KT 9999 FEW018 BKN040 19/14 Q1015
  • 140720Z 22004KT 9999 FEW015 BKN040 17/14 Q1014

TAF TAF EGNR
Valid from the 14 at 09:00 until the 14 at 18:00 UTC


140759Z 1409/1418 23008KT 9999 FEW015 SCT030
No reported NOTAMs for that airfield.



MET'MAP, your aeronautical weather chart ! - Copyright ORBIFLY December 2007 - Disclaimer

ORBIFLY MET'MAP TEAM :

Programming & Development : Alexandra Zaïnal
Concept & Development : Baudouin d'Aumeries
Co-Development & Prog : Marc-Olivier Méhu
Technical & hardware support : Manuel Goepfert

Contact : metmap@orbifly.com




SOURCES & CREDITS :

   NOAA